Regional Weather Roundup
Issued by NWS

Home | Current Version | Previous Version | Graphics & Text | Print | Product List | Glossary Off
Versions: 1 2 3 4 5 6 7 8 9 10 11 12 13 14 15 16 17 18 19 20 21 22 23 24 25 26 27 28 29 30 31 32 33 34 35 36 37 38 39 40 41 42 43 44 45 46 47 48 49 50

000
ASUS43 KMKX 280500
RWRWI

WISCONSIN REGIONAL WEATHER ROUNDUP
NATIONAL WEATHER SERVICE MILWAUKEE/SULLIVAN WI
1200 AM CDT MON JUL 28 2014

NOTE: "FAIR" INDICATES FEW OR NO CLOUDS BELOW 12,000 FEET WITH NO
SIGNIFICANT WEATHER AND/OR OBSTRUCTIONS TO VISIBILITY.

WIZ001-002-006>008-014>016-023>028-280600-
NORTHWEST WISCONSIN

CITY           SKY/WX    TMP DP  RH WIND       PRES   REMARKS
SUPERIOR ARPT  MOCLDY    58  55  89 NW5       30.09S
ASHLAND        CLEAR     51  50  96 W3        30.11R
HAYWARD        PTCLDY    51  50  96 N3        30.11R
SIREN          CLEAR     56  54  92 NW3       30.12S
RICE LAKE      MOCLDY    55  53  92 CALM      30.12S
LADYSMITH      MOCLDY    56  52  86 NW7       30.12R
EAU CLAIRE     NOT AVBL
MENOMONIE      CLEAR     57  54  88 W3        30.11R
NEW RICHMOND   CLOUDY    59  57  93 CALM      30.12S
OSCEOLA        CLOUDY    61  59  93 CALM      30.15R
$$

WIZ003>005-009-010-017-018-280600-
NORTH CENTRAL WISCONSIN

CITY           SKY/WX    TMP DP  RH WIND       PRES   REMARKS
WOODRUFF       CLEAR     52  49  90 N5        30.07S
RHINELANDER    CLEAR     53  50  89 N3        30.06S
EAGLE RIVER    PTCLDY    52  49  89 N3        30.06R
LAND O LAKES   CLOUDY    55  49  81 N6        30.07R
PHILLIPS       CLEAR     51  50  97 CALM      30.09R
TOMAHAWK       CLEAR     51  49  93 CALM      30.07R
MEDFORD        CLEAR     53  50  91 N7        30.07R
MERRILL        CLEAR     53  51  93 NW3       30.05S
$$

WIZ029-030-035-036-043>047-280600-
CENTRAL WISCONSIN

CITY           SKY/WX    TMP DP  RH WIND       PRES   REMARKS
WAUSAU         CLEAR     57  51  80 NW7       30.04R
MOSINEE        CLEAR     54  52  94 NW6       30.06R
MARSHFIELD     CLEAR     54  51  90 NW8       30.06R
STEVENS POINT  CLEAR     54  50  88 NW5       30.04R
WAUPACA        CLEAR     58  52  79 N3        30.01S
WAUTOMA        NOT AVBL
WISC RAPIDS    CLEAR     57  53  86 MISG      30.05R
CAMP DOUGLAS   NOT AVBL
$$

WIZ011>013-019>022-031-037>040-048>050-280600-
NORTHEAST WISCONSIN

CITY           SKY/WX    TMP DP  RH WIND       PRES   REMARKS
ANTIGO         CLEAR     53  49  89 N8        30.04R
STURGEON BAY   CLEAR     57  46  67 N22G29    29.96S
GREEN BAY      CLEAR     57  51  80 N9        29.98R
MANITOWOC      NOT AVBL
APPLETON       CLEAR     57  50  77 N10       29.99R
CLINTONVILLE   CLEAR     57  50  77 NW8       30.01R
OSHKOSH        CLEAR     60  53  77 N12       29.98R
$$

WIZ032>034-041-042-053>061-280600-
SOUTHWEST WISCONSIN

CITY           SKY/WX    TMP DP  RH WIND       PRES   REMARKS
LA CROSSE      CLEAR     61  55  81 N7        30.07R
SPARTA         CLEAR     59  53  79 CALM      30.07R
VIROQUA        FAIR      60  56  84 N12       30.05R
BOSCOBEL       CLOUDY    66  57  72 N6G16     30.03R
PRAIRIE DU CHI CLEAR     66  56  71 N8        30.02R
PLATTEVILLE    MOCLDY    64  61  90 N10       30.01R
$$

WIZ056-057-062-063-064-067-068-280600-
SOUTH CENTRAL WISCONSIN

CITY           SKY/WX    TMP DP  RH WIND       PRES   REMARKS
BARABOO/DELLS  PTCLDY    61  53  76 N6        30.02R
LONE ROCK      NOT AVBL
WATERTOWN      PTCLDY    60  56  87 N9        29.96S
MADISON        PTCLDY    62  54  74 N12       30.00R
MIDDLETON      FAIR      63  58  82 N9        30.00S
MONROE         CLOUDY    63  59  88 N13G24    29.98R
JANESVILLE     MOCLDY    64  54  68 N10G17    29.96R
$$

WIZ051-052-058>065-066-070>072-280600-
SOUTHEAST WISCONSIN

CITY           SKY/WX    TMP DP  RH WIND       PRES   REMARKS
MILWAUKEE      PTCLDY    63  53  70 N10       29.94R
WAUKESHA       CLEAR     59  50  72 N10G17    29.96R
MILWAUKEE/TIMM CLEAR     61  52  72 N9        29.95R
RACINE         CLOUDY    63  53  70 N15       29.94R
BURLINGTON     CLEAR     60  52  75 N7        29.94S
KENOSHA        CLOUDY    64  53  67 N12       29.93R
FOND DU LAC    PTCLDY    60  53  77 N10       29.98R
SHEBOYGAN      CLEAR     61  50  67 N14G23    29.94R
WEST BEND      CLEAR     59  50  72 N8        29.95R
JUNEAU         CLEAR     60  52  76 NW8       29.99R
$$

LSZ147-162-280600-
LAKE SUPERIOR

STATION/POSITION TIME  TEMP    WIND        PRES    WAVE
                       AIR SEA DIR/SP/G            HT/PER
                 (UTC) (F)     (DEG/KT/KT) (MB)    (FT/S)
W MID LAKE BUOY  0350   50 43  280/  8/ 10 1018.5R   1/ 5
PORT WING        0440   56     150/  2/  3 1019.3R
SAXON HARBOR     0400           CALM  /  2 1018.6S
$$

LMZ867-665-643>646-280600-
LAKE MICHIGAN

STATION/POSITION TIME  TEMP    WIND        PRES    WAVE
                       AIR SEA DIR/SP/G            HT/PER
                 (UTC) (F)     (DEG/KT/KT) (MB)    (FT/S)
N MID LAKE BUOY  0350   57 55  340/ 19/ 23 1011.6R   3/ 5
NORTHPORT PIER   0400   60     340/ 22/ 27 1013.9R
KEWAUNEE LAKESHO 0400   62     340/ 11/ 19 1014.3R
SHEBOYGAN LAKESH 0400   62     340/ 18/ 23 1013.3R
PORT WASHINGTON  0400   64     340/  5/ 10 1013.9
ATWATER BUOY     0400   63     340/ 14     1014.1R
MILWAUKEE LAKESH 0400   64     330/ 12/ 16   N/A
S MID LAKE BUOY  0350   62 61  340/ 27/ 31 1010.4R   6/ 6
KENOSHA   LAKESH 0400   64     360/ 22/ 28 1012.5R
$$

TC  - TEMPERATURE IN CELSIUS
VSB - VISIBILITY IN STATUTE MILES
WCI - WIND CHILL INDEX
HX  - HEAT INDEX




USA.gov is the U.S. government's official web portal to all federal, state and local government web resources and services.